Location: Austin
(30.3000°N, 97.7500°W)
Time: 04:27:09
(UTC-05:00)

CSL-04 Rocket - Pass Details

Date: 18 March 2023
Orbit: 806 x 860 km, 98.8° (Epoch: 01 April)

Event Time Altitude Azimuth Distance (km) Brightness Sun altitude
Exits shadow 21:37:22 46° 170° (S) 1,140 4.1 -25.6°
Maximum altitude 21:39:08 86° 256° (WSW) 865 3.6 -26.0°
Drops below altitude 10° 21:44:42 10° 346° (NNW) 2,498 6.5 -27.2°
Sets 21:47:05 0° 347° (NNW) 3,435 7.3 -27.6°
